Time,TemperatureF,DewpointF,PressureIn,WindDirection,WindDirectionDegrees,WindSpeedMPH,WindSpeedGustMPH,Humidity,HourlyPrecipIn,Conditions,Clouds,dailyrainin,SoftwareType,DateUTC
2013-09-08 00:01:00,68.3,60.1,29.92,ESE,114,1.0,2.0,75,0.00,,---,0.00,VWS V14.01,2013-09-08 05:01:00,
2013-09-08 00:06:00,68.1,59.9,29.92,East,88,2.0,10.0,75,0.00,,---,0.00,VWS V14.01,2013-09-08 05:06:00,
2013-09-08 00:11:00,67.8,59.6,29.92,ESE,112,2.0,3.0,75,0.00,,---,0.00,VWS V14.01,2013-09-08 05:11:00,
2013-09-08 00:16:00,67.6,59.4,29.92,East,96,0.0,12.0,75,0.00,,---,0.00,VWS V14.01,2013-09-08 05:16:00,
2013-09-08 00:21:00,67.4,59.2,29.92,ESE,119,8.0,8.0,75,0.00,,---,0.00,VWS V14.01,2013-09-08 05:21:00,
2013-09-08 00:26:00,67.3,59.1,29.92,ESE,112,1.0,8.0,75,0.00,,---,0.00,VWS V14.01,2013-09-08 05:26:00,
2013-09-08 00:30:00,67.1,58.5,29.93,ESE,102,7.0,8.0,74,0.00,,---,0.00,VWS V14.01,2013-09-08 05:30:00,
2013-09-08 00:31:00,67.1,58.5,29.93,SE,136,4.0,7.0,74,0.00,,---,0.00,VWS V14.01,2013-09-08 05:31:00,
2013-09-08 00:36:00,67.1,58.9,29.93,ESE,116,3.0,7.0,75,0.00,,---,0.00,VWS V14.01,2013-09-08 05:36:00,
2013-09-08 00:41:00,66.8,59.0,29.93,SE,140,4.0,4.0,76,0.00,,---,0.00,VWS V14.01,2013-09-08 05:41:00,
2013-09-08 00:46:00,66.6,58.4,29.93,ESE,116,3.0,7.0,75,0.00,,---,0.00,VWS V14.01,2013-09-08 05:46:00,
2013-09-08 00:51:00,66.4,58.2,29.93,ESE,116,1.0,5.0,75,0.00,,---,0.00,VWS V14.01,2013-09-08 05:51:00,
2013-09-08 00:56:00,66.3,58.5,29.93,ESE,109,1.0,6.0,76,0.00,,---,0.00,VWS V14.01,2013-09-08 05:56:00,
2013-09-08 01:01:00,66.0,58.2,29.93,ESE,112,1.0,2.0,76,0.00,,---,0.00,VWS V14.01,2013-09-08 06:01:00,
2013-09-08 01:06:00,65.8,58.4,29.93,ESE,114,1.0,10.0,77,0.00,,---,0.00,VWS V14.01,2013-09-08 06:06:00,
2013-09-08 01:11:00,65.6,58.2,29.93,East,99,5.0,5.0,77,0.00,,---,0.00,VWS V14.01,2013-09-08 06:11:00,
2013-09-08 01:16:00,65.6,58.2,29.92,SE,126,5.0,10.0,77,0.00,,---,0.00,VWS V14.01,2013-09-08 06:16:00,
2013-09-08 01:21:00,65.5,58.1,29.92,ESE,119,6.0,6.0,77,0.00,,---,0.00,VWS V14.01,2013-09-08 06:21:00,
2013-09-08 01:26:00,65.3,58.3,29.92,ESE,109,0.0,9.0,78,0.00,,---,0.00,VWS V14.01,2013-09-08 06:26:00,
2013-09-08 01:31:00,65.2,58.2,29.92,ESE,113,6.0,7.0,78,0.00,,---,0.00,VWS V14.01,2013-09-08 06:31:00,
2013-09-08 01:36:00,65.0,57.6,29.92,East,95,1.0,7.0,77,0.00,,---,0.00,VWS V14.01,2013-09-08 06:36:00,
2013-09-08 01:41:00,65.0,58.0,29.92,ESE,113,6.0,6.0,78,0.00,,---,0.00,VWS V14.01,2013-09-08 06:41:00,
2013-09-08 01:46:00,64.8,57.8,29.92,ESE,116,1.0,9.0,78,0.00,,---,0.00,VWS V14.01,2013-09-08 06:46:00,
2013-09-08 01:50:00,64.8,57.8,29.92,ESE,112,4.0,6.0,78,0.00,,---,0.00,VWS V14.01,2013-09-08 06:50:00,
2013-09-08 01:55:00,64.7,57.7,29.92,SE,126,1.0,6.0,78,0.00,,---,0.00,VWS V14.01,2013-09-08 06:55:00,
2013-09-08 02:00:00,64.5,57.8,29.92,East,97,1.0,8.0,79,0.00,,---,0.00,VWS V14.01,2013-09-08 07:00:00,
2013-09-08 02:05:00,64.3,57.7,29.92,ESE,107,1.0,8.0,79,0.00,,---,0.00,VWS V14.01,2013-09-08 07:05:00,
2013-09-08 02:10:00,64.2,57.6,29.92,ESE,109,0.0,0.0,79,0.00,,---,0.00,VWS V14.01,2013-09-08 07:10:00,
2013-09-08 02:15:00,64.2,57.9,29.93,ESE,109,3.0,7.0,80,0.00,,---,0.00,VWS V14.01,2013-09-08 07:15:00,
2013-09-08 02:20:00,64.0,57.7,29.93,East,97,0.0,0.0,80,0.00,,---,0.00,VWS V14.01,2013-09-08 07:20:00,
2013-09-08 02:25:00,63.9,57.6,29.93,ESE,120,0.0,5.0,80,0.00,,---,0.00,VWS V14.01,2013-09-08 07:25:00,
2013-09-08 02:30:00,63.7,57.8,29.92,SE,127,5.0,5.0,81,0.00,,---,0.00,VWS V14.01,2013-09-08 07:30:00,
2013-09-08 02:35:00,63.5,57.6,29.92,East,88,4.0,7.0,81,0.00,,---,0.00,VWS V14.01,2013-09-08 07:35:00,
2013-09-08 02:40:00,63.5,57.9,29.92,ESE,116,0.0,7.0,82,0.00,,---,0.00,VWS V14.01,2013-09-08 07:40:00,
2013-09-08 02:45:00,63.4,57.8,29.92,ESE,109,6.0,7.0,82,0.00,,---,0.00,VWS V14.01,2013-09-08 07:45:00,
2013-09-08 02:50:00,63.4,57.8,29.92,ESE,104,2.0,2.0,82,0.00,,---,0.00,VWS V14.01,2013-09-08 07:50:00,
2013-09-08 02:55:00,63.2,58.0,29.92,ESE,102,0.0,6.0,83,0.00,,---,0.00,VWS V14.01,2013-09-08 07:55:00,
2013-09-08 03:00:00,63.2,58.0,29.92,SE,133,5.0,5.0,83,0.00,,---,0.00,VWS V14.01,2013-09-08 08:00:00,
2013-09-08 03:05:00,63.2,58.0,29.92,SE,128,3.0,10.0,83,0.00,,---,0.00,VWS V14.01,2013-09-08 08:05:00,
2013-09-08 03:10:00,63.1,57.9,29.92,SE,127,2.0,10.0,83,0.00,,---,0.00,VWS V14.01,2013-09-08 08:10:00,
2013-09-08 03:15:00,63.1,57.9,29.92,ESE,109,0.0,10.0,83,0.00,,---,0.00,VWS V14.01,2013-09-08 08:15:00,
2013-09-08 03:20:00,62.9,58.0,29.92,ESE,112,0.0,10.0,84,0.00,,---,0.00,VWS V14.01,2013-09-08 08:20:00,
2013-09-08 03:25:00,62.7,57.8,29.92,SE,133,0.0,8.0,84,0.00,,---,0.00,VWS V14.01,2013-09-08 08:25:00,
2013-09-08 03:30:00,62.7,58.1,29.92,ESE,116,3.0,8.0,85,0.00,,---,0.00,VWS V14.01,2013-09-08 08:30:00,
2013-09-08 03:35:00,62.6,58.0,29.92,ESE,119,1.0,8.0,85,0.00,,---,0.00,VWS V14.01,2013-09-08 08:35:00,
2013-09-08 03:40:00,62.6,58.0,29.92,SE,124,2.0,9.0,85,0.00,,---,0.00,VWS V14.01,2013-09-08 08:40:00,
2013-09-08 03:45:00,62.4,57.8,29.92,ESE,106,0.0,7.0,85,0.00,,---,0.00,VWS V14.01,2013-09-08 08:45:00,
2013-09-08 03:50:00,62.4,58.2,29.92,East,82,0.0,7.0,86,0.00,,---,0.00,VWS V14.01,2013-09-08 08:50:00,
2013-09-08 03:55:00,62.3,58.1,29.92,East,95,0.0,6.0,86,0.00,,---,0.00,VWS V14.01,2013-09-08 08:55:00,
2013-09-08 04:00:00,62.3,58.1,29.92,SE,128,3.0,7.0,86,0.00,,---,0.00,VWS V14.01,2013-09-08 09:00:00,
2013-09-08 04:05:00,62.1,57.9,29.92,SE,127,1.0,7.0,86,0.00,,---,0.00,VWS V14.01,2013-09-08 09:05:00,
2013-09-08 04:10:00,62.1,57.9,29.92,SE,136,2.0,10.0,86,0.00,,---,0.00,VWS V14.01,2013-09-08 09:10:00,
2013-09-08 04:15:00,62.0,58.1,29.91,ESE,110,2.0,8.0,87,0.00,,---,0.00,VWS V14.01,2013-09-08 09:15:00,
2013-09-08 04:20:00,62.0,58.1,29.91,ESE,106,6.0,8.0,87,0.00,,---,0.00,VWS V14.01,2013-09-08 09:20:00,
2013-09-08 04:25:00,61.8,57.9,29.91,East,99,3.0,7.0,87,0.00,,---,0.00,VWS V14.01,2013-09-08 09:25:00,
2013-09-08 04:30:00,61.8,57.9,29.91,East,85,2.0,7.0,87,0.00,,---,0.00,VWS V14.01,2013-09-08 09:30:00,
2013-09-08 04:35:00,61.6,57.7,29.91,ESE,110,1.0,7.0,87,0.00,,---,0.00,VWS V14.01,2013-09-08 09:35:00,
2013-09-08 04:40:00,61.6,57.7,29.91,ESE,110,1.0,7.0,87,0.00,,---,0.00,VWS V14.01,2013-09-08 09:40:00,
2013-09-08 04:45:00,61.6,57.7,29.91,ESE,119,4.0,7.0,87,0.00,,---,0.00,VWS V14.01,2013-09-08 09:45:00,
2013-09-08 04:50:00,61.5,57.6,29.91,ESE,103,2.0,7.0,87,0.00,,---,0.00,VWS V14.01,2013-09-08 09:50:00,
2013-09-08 04:55:00,61.5,57.6,29.91,ESE,121,1.0,6.0,87,0.00,,---,0.00,VWS V14.01,2013-09-08 09:55:00,
2013-09-08 05:00:00,61.3,57.1,29.92,SE,126,3.0,6.0,86,0.00,,---,0.00,VWS V14.01,2013-09-08 10:00:00,
2013-09-08 05:05:00,61.3,57.1,29.92,ESE,119,1.0,3.0,86,0.00,,---,0.00,VWS V14.01,2013-09-08 10:05:00,
2013-09-08 05:10:00,61.3,57.1,29.92,ESE,109,1.0,8.0,86,0.00,,---,0.00,VWS V14.01,2013-09-08 10:10:00,
2013-09-08 05:15:00,61.2,57.0,29.92,East,89,7.0,8.0,86,0.00,,---,0.00,VWS V14.01,2013-09-08 10:15:00,
2013-09-08 05:20:00,61.2,56.7,29.92,SE,124,1.0,8.0,85,0.00,,---,0.00,VWS V14.01,2013-09-08 10:20:00,
2013-09-08 05:25:00,61.2,56.3,29.92,ESE,121,2.0,5.0,84,0.00,,---,0.00,VWS V14.01,2013-09-08 10:25:00,
2013-09-08 05:30:00,61.2,56.0,29.92,ESE,103,6.0,7.0,83,0.00,,---,0.00,VWS V14.01,2013-09-08 10:30:00,
2013-09-08 05:35:00,61.0,55.8,29.92,SE,128,5.0,7.0,83,0.00,,---,0.00,VWS V14.01,2013-09-08 10:35:00,
2013-09-08 05:40:00,61.2,55.7,29.92,ESE,120,2.0,8.0,82,0.00,,---,0.00,VWS V14.01,2013-09-08 10:40:00,
2013-09-08 05:45:00,61.2,55.3,29.92,East,97,1.0,5.0,81,0.00,,---,0.00,VWS V14.01,2013-09-08 10:45:00,
2013-09-08 05:50:00,61.2,55.0,29.92,ENE,61,0.0,5.0,80,0.00,,---,0.00,VWS V14.01,2013-09-08 10:50:00,
2013-09-08 05:55:00,61.2,54.3,29.92,SSE,151,0.0,6.0,78,0.00,,---,0.00,VWS V14.01,2013-09-08 10:55:00,
2013-09-08 06:00:00,61.3,54.0,29.93,SE,124,6.0,6.0,77,0.00,,---,0.00,VWS V14.01,2013-09-08 11:00:00,
2013-09-08 06:05:00,61.3,53.7,29.93,ESE,119,3.0,7.0,76,0.00,,---,0.00,VWS V14.01,2013-09-08 11:05:00,
2013-09-08 06:10:00,61.3,53.3,29.93,ESE,112,5.0,7.0,75,0.00,,---,0.00,VWS V14.01,2013-09-08 11:10:00,
2013-09-08 06:15:00,61.3,53.3,29.93,SE,126,6.0,6.0,75,0.00,,---,0.00,VWS V14.01,2013-09-08 11:15:00,
2013-09-08 06:20:00,61.5,53.5,29.93,East,88,5.0,6.0,75,0.00,,---,0.00,VWS V14.01,2013-09-08 11:20:00,
2013-09-08 06:25:00,61.5,53.2,29.93,ESE,119,4.0,7.0,74,0.00,,---,0.00,VWS V14.01,2013-09-08 11:25:00,
2013-09-08 06:30:00,61.6,53.2,29.93,SE,130,2.0,7.0,74,0.00,,---,0.00,VWS V14.01,2013-09-08 11:30:00,
2013-09-08 06:35:00,61.6,53.2,29.93,SE,140,2.0,7.0,74,0.00,,---,0.00,VWS V14.01,2013-09-08 11:35:00,
2013-09-08 06:40:00,61.6,52.9,29.93,SE,134,1.0,7.0,73,0.00,,---,0.00,VWS V14.01,2013-09-08 11:40:00,
2013-09-08 06:45:00,61.6,52.9,29.93,SE,143,1.0,6.0,73,0.00,,---,0.00,VWS V14.01,2013-09-08 11:45:00,
2013-09-08 06:50:00,61.6,52.5,29.93,SE,137,1.0,7.0,72,0.00,,---,0.00,VWS V14.01,2013-09-08 11:50:00,
2013-09-08 06:55:00,61.8,52.7,29.93,SE,140,0.0,6.0,72,0.00,,---,0.00,VWS V14.01,2013-09-08 11:55:00,
2013-09-08 07:00:00,61.8,52.3,29.93,SE,131,4.0,8.0,71,0.00,,---,0.00,VWS V14.01,2013-09-08 12:00:00,
2013-09-08 07:05:00,61.8,52.3,29.93,SSE,150,3.0,10.0,71,0.00,,---,0.00,VWS V14.01,2013-09-08 12:05:00,
2013-09-08 07:10:00,62.0,52.5,29.93,SE,127,0.0,10.0,71,0.00,,---,0.00,VWS V14.01,2013-09-08 12:10:00,
2013-09-08 07:15:00,62.0,52.1,29.94,SE,133,1.0,5.0,70,0.00,,---,0.00,VWS V14.01,2013-09-08 12:15:00,
2013-09-08 07:20:00,62.1,52.6,29.94,ESE,103,5.0,6.0,71,0.00,,---,0.00,VWS V14.01,2013-09-08 12:20:00,
2013-09-08 07:25:00,62.1,52.6,29.94,SE,145,5.0,6.0,71,0.00,,---,0.00,VWS V14.01,2013-09-08 12:25:00,
2013-09-08 07:30:00,62.1,52.2,29.93,ESE,119,2.0,7.0,70,0.00,,---,0.00,VWS V14.01,2013-09-08 12:30:00,
2013-09-08 07:35:00,62.1,52.6,29.93,ESE,110,0.0,5.0,71,0.00,,---,0.00,VWS V14.01,2013-09-08 12:35:00,
2013-09-08 07:40:00,62.1,52.6,29.93,ESE,123,1.0,6.0,71,0.00,,---,0.00,VWS V14.01,2013-09-08 12:40:00,
2013-09-08 07:45:00,62.1,52.6,29.94,ESE,116,0.0,6.0,71,0.00,,---,0.00,VWS V14.01,2013-09-08 12:45:00,
2013-09-08 07:50:00,62.1,52.6,29.94,SE,131,3.0,7.0,71,0.00,,---,0.00,VWS V14.01,2013-09-08 12:50:00,
2013-09-08 07:55:00,62.1,52.6,29.94,ESE,112,0.0,6.0,71,0.00,,---,0.00,VWS V14.01,2013-09-08 12:55:00,
2013-09-08 08:00:00,62.1,53.0,29.94,SSE,147,5.0,6.0,72,0.00,,---,0.00,VWS V14.01,2013-09-08 13:00:00,
2013-09-08 08:05:00,62.3,53.2,29.94,ESE,123,5.0,7.0,72,0.00,,---,0.00,VWS V14.01,2013-09-08 13:05:00,
2013-09-08 08:10:00,62.3,53.2,29.94,ESE,102,1.0,7.0,72,0.00,,---,0.00,VWS V14.01,2013-09-08 13:10:00,
2013-09-08 08:15:00,62.3,53.2,29.94,SE,124,0.0,8.0,72,0.00,,---,0.00,VWS V14.01,2013-09-08 13:15:00,
2013-09-08 08:20:00,62.3,53.2,29.94,ESE,106,1.0,8.0,72,0.00,,---,0.00,VWS V14.01,2013-09-08 13:20:00,
2013-09-08 08:25:00,62.3,52.8,29.94,ESE,116,0.0,5.0,71,0.00,,---,0.00,VWS V14.01,2013-09-08 13:25:00,
2013-09-08 08:30:00,62.3,53.2,29.94,East,99,0.0,5.0,72,0.00,,---,0.00,VWS V14.01,2013-09-08 13:30:00,
2013-09-08 08:35:00,62.3,53.2,29.94,ESE,117,2.0,5.0,72,0.00,,---,0.00,VWS V14.01,2013-09-08 13:35:00,
2013-09-08 08:40:00,62.4,53.3,29.94,SE,127,0.0,6.0,72,0.00,,---,0.00,VWS V14.01,2013-09-08 13:40:00,
2013-09-08 08:45:00,62.4,53.3,29.94,SE,127,2.0,7.0,72,0.00,,---,0.00,VWS V14.01,2013-09-08 13:45:00,
2013-09-08 08:50:00,62.3,53.2,29.94,SE,130,0.0,10.0,72,0.00,,---,0.00,VWS V14.01,2013-09-08 13:50:00,
2013-09-08 08:55:00,62.4,53.3,29.94,SE,130,5.0,6.0,72,0.00,,---,0.00,VWS V14.01,2013-09-08 13:55:00,
2013-09-08 09:00:00,62.4,53.3,29.94,ESE,120,5.0,8.0,72,0.00,,---,0.00,VWS V14.01,2013-09-08 14:00:00,
2013-09-08 09:05:00,62.4,53.6,29.94,SE,137,1.0,6.0,73,0.00,,---,0.00,VWS V14.01,2013-09-08 14:05:00,
2013-09-08 09:10:00,62.4,53.6,29.94,SE,131,1.0,6.0,73,0.00,,---,0.00,VWS V14.01,2013-09-08 14:10:00,
2013-09-08 09:15:00,62.4,53.6,29.94,ESE,116,1.0,6.0,73,0.00,,---,0.00,VWS V14.01,2013-09-08 14:15:00,
2013-09-08 09:20:00,62.6,54.2,29.94,SE,126,1.0,7.0,74,0.00,,---,0.00,VWS V14.01,2013-09-08 14:20:00,
2013-09-08 09:25:00,62.7,54.3,29.94,ESE,119,3.0,5.0,74,0.00,,---,0.00,VWS V14.01,2013-09-08 14:25:00,
2013-09-08 09:29:00,62.7,54.3,29.94,ESE,121,0.0,5.0,74,0.00,,---,0.00,VWS V14.01,2013-09-08 14:29:00,
2013-09-08 09:34:00,62.7,54.3,29.94,ESE,103,0.0,3.0,74,0.00,,---,0.00,VWS V14.01,2013-09-08 14:34:00,
2013-09-08 09:39:00,62.7,54.7,29.94,ESE,117,1.0,7.0,75,0.00,,---,0.00,VWS V14.01,2013-09-08 14:39:00,
2013-09-08 09:44:00,62.9,54.9,29.94,SSE,161,0.0,5.0,75,0.00,,---,0.00,VWS V14.01,2013-09-08 14:44:00,
2013-09-08 09:49:00,63.1,55.1,29.94,ESE,114,1.0,5.0,75,0.00,,---,0.00,VWS V14.01,2013-09-08 14:49:00,
2013-09-08 09:54:00,63.2,55.5,29.94,SE,144,1.0,6.0,76,0.00,,---,0.00,VWS V14.01,2013-09-08 14:54:00,
2013-09-08 09:59:00,63.4,56.1,29.94,SE,128,0.0,6.0,77,0.00,,---,0.00,VWS V14.01,2013-09-08 14:59:00,
2013-09-08 10:04:00,63.5,56.2,29.94,SE,127,1.0,5.0,77,0.00,,---,0.00,VWS V14.01,2013-09-08 15:04:00,
2013-09-08 10:09:00,63.5,56.5,29.94,ESE,109,0.0,5.0,78,0.00,,---,0.00,VWS V14.01,2013-09-08 15:09:00,
2013-09-08 10:14:00,63.5,56.9,29.94,SE,144,0.0,6.0,79,0.00,,---,0.00,VWS V14.01,2013-09-08 15:14:00,
2013-09-08 10:19:00,63.5,56.9,29.94,SE,127,0.0,6.0,79,0.00,,---,0.00,VWS V14.01,2013-09-08 15:19:00,
2013-09-08 10:24:00,63.5,57.2,29.94,ESE,119,0.0,7.0,80,0.00,,---,0.00,VWS V14.01,2013-09-08 15:24:00,
2013-09-08 10:29:00,63.7,57.4,29.94,ESE,123,0.0,7.0,80,0.00,,---,0.00,VWS V14.01,2013-09-08 15:29:00,
2013-09-08 10:34:00,63.7,57.8,29.94,SE,136,0.0,6.0,81,0.00,,---,0.00,VWS V14.01,2013-09-08 15:34:00,
2013-09-08 10:39:00,63.9,58.0,29.94,ESE,109,1.0,6.0,81,0.00,,---,0.00,VWS V14.01,2013-09-08 15:39:00,
2013-09-08 10:44:00,63.7,57.8,29.94,ESE,120,2.0,7.0,81,0.00,,---,0.00,VWS V14.01,2013-09-08 15:44:00,
2013-09-08 10:49:00,63.9,58.0,29.95,ESE,119,0.0,7.0,81,0.00,,---,0.00,VWS V14.01,2013-09-08 15:49:00,
2013-09-08 10:54:00,64.0,58.1,29.95,ESE,119,0.0,3.0,81,0.00,,---,0.00,VWS V14.01,2013-09-08 15:54:00,
2013-09-08 10:59:00,64.2,57.9,29.95,ESE,119,0.0,3.0,80,0.00,,---,0.00,VWS V14.01,2013-09-08 15:59:00,
2013-09-08 11:04:00,64.3,58.0,29.96,ESE,119,0.0,3.0,80,0.00,,---,0.00,VWS V14.01,2013-09-08 16:04:00,
2013-09-08 11:09:00,64.3,58.0,29.96,ESE,117,5.0,5.0,80,0.00,,---,0.00,VWS V14.01,2013-09-08 16:09:00,
2013-09-08 11:14:00,64.3,58.0,29.96,SE,130,0.0,1.0,80,0.00,,---,0.00,VWS V14.01,2013-09-08 16:14:00,
2013-09-08 11:19:00,64.3,58.0,29.95,SSE,168,1.0,7.0,80,0.00,,---,0.00,VWS V14.01,2013-09-08 16:19:00,
2013-09-08 11:24:00,64.5,58.2,29.95,SE,124,0.0,5.0,80,0.00,,---,0.00,VWS V14.01,2013-09-08 16:24:00,
2013-09-08 11:29:00,64.7,58.4,29.95,SE,130,1.0,7.0,80,0.00,,---,0.00,VWS V14.01,2013-09-08 16:29:00,
2013-09-08 11:34:00,64.5,58.5,29.94,ESE,123,1.0,8.0,81,0.00,,---,0.00,VWS V14.01,2013-09-08 16:34:00,
2013-09-08 11:39:00,64.5,58.5,29.94,SE,144,2.0,8.0,81,0.00,,---,0.00,VWS V14.01,2013-09-08 16:39:00,
2013-09-08 11:44:00,64.7,58.4,29.94,SE,131,0.0,4.0,80,0.00,,---,0.00,VWS V14.01,2013-09-08 16:44:00,
2013-09-08 11:49:00,64.8,58.5,29.95,ESE,110,0.0,4.0,80,0.00,,---,0.00,VWS V14.01,2013-09-08 16:49:00,
2013-09-08 11:54:00,65.0,58.7,29.95,ESE,112,0.0,0.0,80,0.00,,---,0.00,VWS V14.01,2013-09-08 16:54:00,
2013-09-08 11:59:00,65.2,58.5,29.95,South,179,1.0,6.0,79,0.00,,---,0.00,VWS V14.01,2013-09-08 16:59:00,
2013-09-08 12:04:00,65.2,58.5,29.95,SE,133,0.0,5.0,79,0.00,,---,0.00,VWS V14.01,2013-09-08 17:04:00,
2013-09-08 12:09:00,65.2,58.9,29.95,SSE,151,0.0,5.0,80,0.00,,---,0.00,VWS V14.01,2013-09-08 17:09:00,
2013-09-08 12:14:00,65.0,59.0,29.95,SE,137,5.0,6.0,81,0.00,,---,0.00,VWS V14.01,2013-09-08 17:14:00,
2013-09-08 12:19:00,64.7,59.8,29.93,ESE,120,7.0,7.0,84,0.00,,---,0.00,VWS V14.01,2013-09-08 17:19:00,
2013-09-08 12:24:00,64.2,59.3,29.93,SE,130,4.0,6.0,84,0.00,,---,0.00,VWS V14.01,2013-09-08 17:24:00,
2013-09-08 12:29:00,64.0,59.7,29.93,SSE,152,0.0,7.0,86,0.01,,---,0.01,VWS V14.01,2013-09-08 17:29:00,
2013-09-08 12:34:00,64.0,60.4,29.92,SSE,148,0.0,3.0,88,0.01,,---,0.01,VWS V14.01,2013-09-08 17:34:00,
2013-09-08 12:39:00,64.3,60.7,29.92,SE,144,2.0,3.0,88,0.01,,---,0.01,VWS V14.01,2013-09-08 17:39:00,
2013-09-08 12:44:00,64.5,60.5,29.92,SE,138,1.0,3.0,87,0.01,,---,0.01,VWS V14.01,2013-09-08 17:44:00,
2013-09-08 12:49:00,64.5,60.9,29.94,SE,140,0.0,3.0,88,0.01,,---,0.01,VWS V14.01,2013-09-08 17:49:00,
2013-09-08 12:54:00,64.7,61.1,29.94,SE,137,0.0,1.0,88,0.01,,---,0.01,VWS V14.01,2013-09-08 17:54:00,
2013-09-08 12:59:00,64.7,61.1,29.94,SE,144,1.0,3.0,88,0.01,,---,0.01,VWS V14.01,2013-09-08 17:59:00,
2013-09-08 13:04:00,64.7,61.4,29.92,SE,136,4.0,5.0,89,0.01,,---,0.01,VWS V14.01,2013-09-08 18:04:00,
2013-09-08 13:09:00,64.7,61.4,29.92,South,171,1.0,6.0,89,0.01,,---,0.01,VWS V14.01,2013-09-08 18:09:00,
2013-09-08 13:14:00,64.8,61.5,29.92,SSE,148,1.0,3.0,89,0.01,,---,0.01,VWS V14.01,2013-09-08 18:14:00,
2013-09-08 13:19:00,65.0,61.7,29.90,SSE,151,1.0,5.0,89,0.01,,---,0.01,VWS V14.01,2013-09-08 18:19:00,
2013-09-08 13:24:00,65.2,62.2,29.90,South,185,0.0,4.0,90,0.01,,---,0.01,VWS V14.01,2013-09-08 18:24:00,
2013-09-08 13:29:00,65.3,62.3,29.90,SSE,152,1.0,6.0,90,0.01,,---,0.01,VWS V14.01,2013-09-08 18:29:00,
2013-09-08 13:34:00,65.5,62.2,29.88,South,169,2.0,5.0,89,0.00,,---,0.01,VWS V14.01,2013-09-08 18:34:00,
2013-09-08 13:39:00,65.8,62.5,29.88,SSE,168,1.0,7.0,89,0.00,,---,0.01,VWS V14.01,2013-09-08 18:39:00,
2013-09-08 13:44:00,66.0,62.7,29.88,SE,144,0.0,5.0,89,0.00,,---,0.01,VWS V14.01,2013-09-08 18:44:00,
2013-09-08 13:49:00,66.3,62.3,29.89,SE,130,1.0,5.0,87,0.00,,---,0.01,VWS V14.01,2013-09-08 18:49:00,
2013-09-08 13:54:00,66.3,62.6,29.89,ESE,112,1.0,1.0,88,0.00,,---,0.01,VWS V14.01,2013-09-08 18:54:00,
2013-09-08 13:59:00,66.3,62.6,29.89,ESE,112,0.0,1.0,88,0.00,,---,0.01,VWS V14.01,2013-09-08 18:59:00,
2013-09-08 14:04:00,66.3,62.3,29.89,ESE,113,0.0,0.0,87,0.00,,---,0.01,VWS V14.01,2013-09-08 19:04:00,
2013-09-08 14:09:00,66.4,62.4,29.89,ESE,119,0.0,0.0,87,0.00,,---,0.01,VWS V14.01,2013-09-08 19:09:00,
2013-09-08 14:14:00,66.4,62.4,29.89,ESE,120,0.0,0.0,87,0.00,,---,0.01,VWS V14.01,2013-09-08 19:14:00,
2013-09-08 14:19:00,66.4,62.7,29.89,ESE,119,0.0,0.0,88,0.00,,---,0.01,VWS V14.01,2013-09-08 19:19:00,
2013-09-08 14:24:00,66.6,62.6,29.89,ESE,123,0.0,0.0,87,0.00,,---,0.01,VWS V14.01,2013-09-08 19:24:00,
2013-09-08 14:29:00,66.8,62.8,29.89,East,97,0.0,1.0,87,0.00,,---,0.01,VWS V14.01,2013-09-08 19:29:00,
2013-09-08 14:34:00,66.9,62.9,29.89,East,99,0.0,0.0,87,0.00,,---,0.01,VWS V14.01,2013-09-08 19:34:00,
2013-09-08 14:39:00,66.9,62.9,29.89,ESE,102,0.0,0.0,87,0.00,,---,0.01,VWS V14.01,2013-09-08 19:39:00,
2013-09-08 14:44:00,67.1,62.8,29.89,ESE,117,0.0,0.0,86,0.00,,---,0.01,VWS V14.01,2013-09-08 19:44:00,
2013-09-08 14:49:00,67.3,63.0,29.88,SE,144,0.0,1.0,86,0.00,,---,0.01,VWS V14.01,2013-09-08 19:49:00,
2013-09-08 14:54:00,67.4,63.1,29.88,SSE,147,0.0,0.0,86,0.00,,---,0.01,VWS V14.01,2013-09-08 19:54:00,
2013-09-08 14:59:00,67.6,62.9,29.88,SSE,147,0.0,0.0,85,0.00,,---,0.01,VWS V14.01,2013-09-08 19:59:00,
2013-09-08 15:04:00,67.6,62.6,29.88,SE,145,0.0,0.0,84,0.00,,---,0.01,VWS V14.01,2013-09-08 20:04:00,
2013-09-08 15:09:00,67.6,62.9,29.88,SE,141,0.0,0.0,85,0.00,,---,0.01,VWS V14.01,2013-09-08 20:09:00,
2013-09-08 15:14:00,67.6,62.9,29.88,SE,137,0.0,0.0,85,0.00,,---,0.01,VWS V14.01,2013-09-08 20:14:00,
2013-09-08 15:19:00,67.6,62.9,29.86,SE,143,0.0,0.0,85,0.00,,---,0.01,VWS V14.01,2013-09-08 20:19:00,
2013-09-08 15:24:00,67.4,62.7,29.86,SE,140,0.0,0.0,85,0.00,,---,0.01,VWS V14.01,2013-09-08 20:24:00,
2013-09-08 15:29:00,67.4,62.7,29.86,SE,138,0.0,0.0,85,0.00,,---,0.01,VWS V14.01,2013-09-08 20:29:00,
2013-09-08 15:34:00,67.4,63.1,29.86,SE,134,0.0,0.0,86,0.00,,---,0.01,VWS V14.01,2013-09-08 20:34:00,
2013-09-08 15:39:00,67.6,63.3,29.86,East,82,1.0,4.0,86,0.00,,---,0.01,VWS V14.01,2013-09-08 20:39:00,
2013-09-08 15:44:00,67.4,62.7,29.86,East,99,1.0,3.0,85,0.00,,---,0.01,VWS V14.01,2013-09-08 20:44:00,
2013-09-08 15:49:00,67.4,62.7,29.87,ESE,109,0.0,6.0,85,0.00,,---,0.01,VWS V14.01,2013-09-08 20:49:00,
2013-09-08 15:54:00,67.4,62.7,29.87,ESE,103,2.0,3.0,85,0.00,,---,0.01,VWS V14.01,2013-09-08 20:54:00,
2013-09-08 15:59:00,67.3,62.3,29.87,ESE,106,1.0,7.0,84,0.00,,---,0.01,VWS V14.01,2013-09-08 20:59:00,
2013-09-08 16:04:00,67.3,62.3,29.86,ESE,113,0.0,6.0,84,0.00,,---,0.01,VWS V14.01,2013-09-08 21:04:00,
2013-09-08 16:09:00,67.1,61.8,29.86,ESE,120,3.0,6.0,83,0.00,,---,0.01,VWS V14.01,2013-09-08 21:09:00,
2013-09-08 16:14:00,66.9,61.9,29.86,East,83,0.0,5.0,84,0.00,,---,0.01,VWS V14.01,2013-09-08 21:14:00,
2013-09-08 16:19:00,66.1,61.1,29.86,East,93,2.0,8.0,84,0.00,,---,0.01,VWS V14.01,2013-09-08 21:19:00,
2013-09-08 16:24:00,65.5,60.9,29.86,ESE,110,2.0,6.0,85,0.00,,---,0.01,VWS V14.01,2013-09-08 21:24:00,
2013-09-08 16:29:00,65.0,60.4,29.86,East,97,3.0,6.0,85,0.00,,---,0.01,VWS V14.01,2013-09-08 21:29:00,
2013-09-08 16:34:00,64.7,60.1,29.87,East,90,0.0,4.0,85,0.00,,---,0.01,VWS V14.01,2013-09-08 21:34:00,
2013-09-08 16:38:00,64.5,59.6,29.87,ESE,112,1.0,6.0,84,0.00,,---,0.01,VWS V14.01,2013-09-08 21:38:00,
2013-09-08 16:43:00,64.3,59.4,29.87,East,93,1.0,6.0,84,0.00,,---,0.01,VWS V14.01,2013-09-08 21:43:00,
2013-09-08 16:48:00,64.2,59.3,29.86,ESE,110,1.0,8.0,84,0.00,,---,0.01,VWS V14.01,2013-09-08 21:48:00,
2013-09-08 16:53:00,64.0,59.1,29.86,ESE,107,0.0,5.0,84,0.00,,---,0.01,VWS V14.01,2013-09-08 21:53:00,
2013-09-08 16:58:00,63.9,59.0,29.86,ESE,104,0.0,5.0,84,0.00,,---,0.01,VWS V14.01,2013-09-08 21:58:00,
2013-09-08 17:03:00,63.7,58.8,29.86,ESE,123,5.0,8.0,84,0.00,,---,0.01,VWS V14.01,2013-09-08 22:03:00,
2013-09-08 17:08:00,63.5,58.6,29.86,East,96,0.0,8.0,84,0.00,,---,0.01,VWS V14.01,2013-09-08 22:08:00,
2013-09-08 17:13:00,63.4,58.5,29.86,East,100,1.0,6.0,84,0.00,,---,0.01,VWS V14.01,2013-09-08 22:13:00,
2013-09-08 17:18:00,63.4,58.5,29.86,ENE,76,1.0,6.0,84,0.00,,---,0.01,VWS V14.01,2013-09-08 22:18:00,
2013-09-08 17:23:00,63.2,58.3,29.86,ESE,106,0.0,6.0,84,0.00,,---,0.01,VWS V14.01,2013-09-08 22:23:00,
2013-09-08 17:28:00,63.2,58.3,29.86,ESE,116,1.0,6.0,84,0.00,,---,0.01,VWS V14.01,2013-09-08 22:28:00,
2013-09-08 17:33:00,63.2,58.3,29.85,East,85,0.0,1.0,84,0.00,,---,0.01,VWS V14.01,2013-09-08 22:33:00,
2013-09-08 17:38:00,63.2,58.3,29.85,East,97,0.0,4.0,84,0.00,,---,0.01,VWS V14.01,2013-09-08 22:38:00,
2013-09-08 17:43:00,63.2,58.3,29.85,East,92,0.0,1.0,84,0.00,,---,0.01,VWS V14.01,2013-09-08 22:43:00,
2013-09-08 17:48:00,63.2,58.0,29.85,ENE,71,0.0,3.0,83,0.00,,---,0.01,VWS V14.01,2013-09-08 22:48:00,
2013-09-08 17:53:00,63.2,58.3,29.85,ESE,106,0.0,7.0,84,0.00,,---,0.01,VWS V14.01,2013-09-08 22:53:00,
2013-09-08 17:58:00,63.2,58.3,29.85,ESE,102,0.0,7.0,84,0.00,,---,0.01,VWS V14.01,2013-09-08 22:58:00,
2013-09-08 18:03:00,63.1,58.2,29.85,East,96,0.0,1.0,84,0.00,,---,0.01,VWS V14.01,2013-09-08 23:03:00,
2013-09-08 18:08:00,63.2,58.0,29.85,ESE,112,0.0,3.0,83,0.00,,---,0.01,VWS V14.01,2013-09-08 23:08:00,
2013-09-08 18:13:00,63.2,58.0,29.85,ESE,114,0.0,6.0,83,0.00,,---,0.01,VWS V14.01,2013-09-08 23:13:00,
2013-09-08 18:18:00,63.4,58.2,29.84,ESE,109,0.0,7.0,83,0.00,,---,0.01,VWS V14.01,2013-09-08 23:18:00,
2013-09-08 18:23:00,63.4,58.2,29.84,ESE,109,0.0,3.0,83,0.00,,---,0.01,VWS V14.01,2013-09-08 23:23:00,
2013-09-08 18:28:00,63.4,58.2,29.84,ESE,120,0.0,7.0,83,0.00,,---,0.01,VWS V14.01,2013-09-08 23:28:00,
2013-09-08 18:33:00,63.4,57.8,29.84,ESE,117,0.0,6.0,82,0.00,,---,0.01,VWS V14.01,2013-09-08 23:33:00,
2013-09-08 18:38:00,63.2,58.0,29.84,ENE,62,0.0,6.0,83,0.00,,---,0.01,VWS V14.01,2013-09-08 23:38:00,
2013-09-08 18:43:00,63.2,58.0,29.84,East,83,0.0,5.0,83,0.00,,---,0.01,VWS V14.01,2013-09-08 23:43:00,
2013-09-08 18:48:00,63.1,57.9,29.84,ESE,123,6.0,6.0,83,0.00,,---,0.01,VWS V14.01,2013-09-08 23:48:00,
2013-09-08 18:53:00,63.1,57.9,29.84,ESE,106,0.0,3.0,83,0.00,,---,0.01,VWS V14.01,2013-09-08 23:53:00,
2013-09-08 18:58:00,62.9,57.7,29.84,East,92,0.0,8.0,83,0.00,,---,0.01,VWS V14.01,2013-09-08 23:58:00,
2013-09-08 19:03:00,62.9,58.0,29.84,ESE,103,4.0,8.0,84,0.00,,---,0.01,VWS V14.01,2013-09-09 00:03:00,
2013-09-08 19:08:00,62.7,57.8,29.84,East,83,0.0,8.0,84,0.00,,---,0.01,VWS V14.01,2013-09-09 00:08:00,
2013-09-08 19:13:00,62.6,57.7,29.84,ESE,113,1.0,5.0,84,0.00,,---,0.01,VWS V14.01,2013-09-09 00:13:00,
2013-09-08 19:18:00,62.4,57.5,29.84,ENE,71,0.0,5.0,84,0.00,,---,0.01,VWS V14.01,2013-09-09 00:18:00,
2013-09-08 19:23:00,62.3,57.4,29.84,ESE,107,3.0,5.0,84,0.00,,---,0.01,VWS V14.01,2013-09-09 00:23:00,
2013-09-08 19:28:00,62.1,57.5,29.84,ESE,102,2.0,7.0,85,0.00,,---,0.01,VWS V14.01,2013-09-09 00:28:00,
2013-09-08 19:33:00,62.0,57.5,29.83,ESE,113,1.0,7.0,85,0.00,,---,0.01,VWS V14.01,2013-09-09 00:33:00,
2013-09-08 19:38:00,61.8,57.2,29.83,ESE,114,0.0,7.0,85,0.00,,---,0.01,VWS V14.01,2013-09-09 00:38:00,
2013-09-08 19:43:00,61.8,57.6,29.83,ESE,106,0.0,3.0,86,0.00,,---,0.01,VWS V14.01,2013-09-09 00:43:00,
2013-09-08 19:48:00,61.6,57.4,29.83,SE,124,0.0,3.0,86,0.00,,---,0.01,VWS V14.01,2013-09-09 00:48:00,
2013-09-08 19:53:00,61.6,57.4,29.83,ESE,114,0.0,1.0,86,0.00,,---,0.01,VWS V14.01,2013-09-09 00:53:00,
2013-09-08 19:58:00,61.6,57.4,29.83,East,85,1.0,4.0,86,0.00,,---,0.01,VWS V14.01,2013-09-09 00:58:00,
2013-09-08 20:03:00,61.6,57.4,29.83,ESE,117,0.0,1.0,86,0.00,,---,0.01,VWS V14.01,2013-09-09 01:03:00,
2013-09-08 20:08:00,61.6,57.4,29.83,ESE,121,0.0,1.0,86,0.00,,---,0.01,VWS V14.01,2013-09-09 01:08:00,
2013-09-08 20:13:00,61.6,57.4,29.83,ESE,116,0.0,3.0,86,0.00,,---,0.01,VWS V14.01,2013-09-09 01:13:00,
2013-09-08 20:18:00,61.6,57.4,29.83,SE,128,0.0,3.0,86,0.00,,---,0.01,VWS V14.01,2013-09-09 01:18:00,
2013-09-08 20:23:00,61.6,57.4,29.83,ESE,119,2.0,2.0,86,0.00,,---,0.01,VWS V14.01,2013-09-09 01:23:00,
2013-09-08 20:28:00,61.6,57.4,29.83,ESE,120,0.0,3.0,86,0.00,,---,0.01,VWS V14.01,2013-09-09 01:28:00,
2013-09-08 20:33:00,61.6,57.4,29.83,SE,137,1.0,5.0,86,0.00,,---,0.01,VWS V14.01,2013-09-09 01:33:00,
2013-09-08 20:38:00,61.8,57.6,29.83,SE,124,1.0,5.0,86,0.00,,---,0.01,VWS V14.01,2013-09-09 01:38:00,
2013-09-08 20:43:00,61.8,57.6,29.83,ESE,123,0.0,0.0,86,0.00,,---,0.01,VWS V14.01,2013-09-09 01:43:00,
2013-09-08 20:48:00,61.8,57.6,29.83,ESE,120,0.0,0.0,86,0.00,,---,0.01,VWS V14.01,2013-09-09 01:48:00,
2013-09-08 20:53:00,61.8,57.6,29.83,SE,128,0.0,1.0,86,0.00,,---,0.01,VWS V14.01,2013-09-09 01:53:00,
2013-09-08 20:58:00,61.8,57.6,29.83,ESE,121,0.0,1.0,86,0.00,,---,0.01,VWS V14.01,2013-09-09 01:58:00,
2013-09-08 21:03:00,62.0,57.8,29.83,ESE,120,0.0,0.0,86,0.00,,---,0.01,VWS V14.01,2013-09-09 02:03:00,
2013-09-08 21:08:00,62.0,57.8,29.83,SE,124,0.0,0.0,86,0.00,,---,0.01,VWS V14.01,2013-09-09 02:08:00,
2013-09-08 21:13:00,62.0,57.8,29.83,SE,130,2.0,6.0,86,0.00,,---,0.01,VWS V14.01,2013-09-09 02:13:00,
2013-09-08 21:18:00,62.1,57.9,29.82,SE,124,0.0,6.0,86,0.00,,---,0.01,VWS V14.01,2013-09-09 02:18:00,
2013-09-08 21:23:00,62.1,57.9,29.82,ESE,119,0.0,0.0,86,0.00,,---,0.01,VWS V14.01,2013-09-09 02:23:00,
2013-09-08 21:28:00,62.1,57.9,29.82,ESE,123,0.0,0.0,86,0.00,,---,0.01,VWS V14.01,2013-09-09 02:28:00,
2013-09-08 21:33:00,62.3,58.1,29.82,ESE,120,0.0,0.0,86,0.00,,---,0.01,VWS V14.01,2013-09-09 02:33:00,
2013-09-08 21:38:00,62.4,58.2,29.82,ESE,117,0.0,0.0,86,0.00,,---,0.01,VWS V14.01,2013-09-09 02:38:00,
2013-09-08 21:43:00,62.4,58.2,29.82,ESE,113,0.0,2.0,86,0.00,,---,0.01,VWS V14.01,2013-09-09 02:43:00,
2013-09-08 21:48:00,62.4,58.2,29.81,ESE,113,0.0,2.0,86,0.00,,---,0.01,VWS V14.01,2013-09-09 02:48:00,
2013-09-08 21:53:00,62.4,58.2,29.81,ESE,116,0.0,0.0,86,0.00,,---,0.01,VWS V14.01,2013-09-09 02:53:00,
2013-09-08 21:58:00,62.6,58.4,29.81,ESE,116,0.0,0.0,86,0.00,,---,0.01,VWS V14.01,2013-09-09 02:58:00,
2013-09-08 22:03:00,62.6,58.4,29.81,ESE,109,0.0,0.0,86,0.00,,---,0.01,VWS V14.01,2013-09-09 03:03:00,
2013-09-08 22:08:00,62.7,58.5,29.81,ESE,110,0.0,0.0,86,0.00,,---,0.01,VWS V14.01,2013-09-09 03:08:00,
2013-09-08 22:13:00,62.9,58.7,29.81,ESE,112,0.0,0.0,86,0.00,,---,0.01,VWS V14.01,2013-09-09 03:13:00,
2013-09-08 22:18:00,62.9,58.7,29.81,ESE,109,0.0,0.0,86,0.00,,---,0.01,VWS V14.01,2013-09-09 03:18:00,
2013-09-08 22:23:00,62.9,58.7,29.81,ESE,103,0.0,0.0,86,0.00,,---,0.01,VWS V14.01,2013-09-09 03:23:00,
2013-09-08 22:28:00,62.9,58.7,29.81,ESE,109,0.0,0.0,86,0.00,,---,0.01,VWS V14.01,2013-09-09 03:28:00,
2013-09-08 22:33:00,62.7,58.5,29.80,ESE,104,0.0,1.0,86,0.00,,---,0.01,VWS V14.01,2013-09-09 03:33:00,
2013-09-08 22:38:00,62.7,58.5,29.80,ESE,109,0.0,1.0,86,0.00,,---,0.01,VWS V14.01,2013-09-09 03:38:00,
2013-09-08 22:43:00,62.9,59.0,29.80,ESE,107,0.0,0.0,87,0.00,,---,0.01,VWS V14.01,2013-09-09 03:43:00,
2013-09-08 22:48:00,62.9,59.0,29.80,ESE,117,0.0,1.0,87,0.00,,---,0.01,VWS V14.01,2013-09-09 03:48:00,
2013-09-08 22:53:00,62.9,59.0,29.80,ESE,120,0.0,1.0,87,0.00,,---,0.01,VWS V14.01,2013-09-09 03:53:00,
2013-09-08 22:58:00,63.1,58.8,29.80,ESE,121,0.0,1.0,86,0.00,,---,0.01,VWS V14.01,2013-09-09 03:58:00,
2013-09-08 23:01:00,63.1,58.8,29.80,ESE,119,0.0,0.0,86,0.00,,---,0.01,VWS V14.01,2013-09-09 04:01:00,
2013-09-08 23:06:00,63.2,59.0,29.80,ESE,121,0.0,0.0,86,0.00,,---,0.01,VWS V14.01,2013-09-09 04:06:00,
2013-09-08 23:11:00,63.2,59.0,29.80,SSE,152,1.0,2.0,86,0.00,,---,0.01,VWS V14.01,2013-09-09 04:11:00,
2013-09-08 23:16:00,63.5,59.2,29.80,SE,136,0.0,5.0,86,0.00,,---,0.01,VWS V14.01,2013-09-09 04:16:00,
2013-09-08 23:20:00,63.7,59.1,29.80,SE,144,0.0,5.0,85,0.00,,---,0.01,VWS V14.01,2013-09-09 04:20:00,
2013-09-08 23:25:00,63.9,59.3,29.80,ESE,121,0.0,3.0,85,0.00,,---,0.01,VWS V14.01,2013-09-09 04:25:00,
2013-09-08 23:30:00,64.0,59.4,29.80,ESE,121,0.0,4.0,85,0.00,,---,0.01,VWS V14.01,2013-09-09 04:30:00,
2013-09-08 23:35:00,64.2,59.6,29.80,SE,141,0.0,1.0,85,0.00,,---,0.01,VWS V14.01,2013-09-09 04:35:00,
2013-09-08 23:40:00,64.2,59.6,29.80,SE,131,0.0,3.0,85,0.00,,---,0.01,VWS V14.01,2013-09-09 04:40:00,
2013-09-08 23:45:00,64.3,59.7,29.78,South,171,1.0,3.0,85,0.00,,---,0.01,VWS V14.01,2013-09-09 04:45:00,
2013-09-08 23:50:00,64.3,59.7,29.78,South,171,0.0,3.0,85,0.00,,---,0.01,VWS V14.01,2013-09-09 04:50:00,
2013-09-08 23:55:00,64.5,59.9,29.78,South,176,0.0,3.0,85,0.00,,---,0.01,VWS V14.01,2013-09-09 04:55:00,